Weather observations for the past three days for
Quillayute, Quillayute State Airport
Imperial (Metric)
Date Time (pdt) Wind (mph) Vis. (mi.) Weather Sky Cond. Temperature (ºF) Relative Humidity Wind Chill (°F) Heat Index (°F) Pressure Precipitation (in)
Air Dwpt 6 hour altimeter (in) sea level (mb) 1 hr 3 hr 6 hr
Max. Min.
20 01:53 NW 5 8.00 A Few Clouds FEW001 54 52 93% 30.17 1021.7
20 00:53 Calm 10.00 Fair CLR 55 51.1 87% 30.18 1021.9
19 23:53 Calm 10.00 Fair CLR 55.9 53.1 90% 30.18 1021.9
19 22:53 Calm 10.00 Fair CLR 57.9 53.1 70 55.9 84% 30.18 1022.0
19 21:53 Calm 10.00 Fair CLR 60.1 55 84% 30.18 1022.1
19 20:53 NW 5 10.00 Fair CLR 63 57 81% 30.17 1021.7
19 19:53 SW 5 10.00 Fair CLR 66 57.9 75% 30.18 1021.8
19 18:53 SW 8 10.00 Fair CLR 69.1 59 70% 30.18 1021.9
19 17:53 SW 8 10.00 Fair CLR 70 59 68% 30.19 1022.2
19 16:53 SW 8 10.00 Fair CLR 68 59 73 64.9 73% 30.2 1022.7
19 15:53 W 12 10.00 Fair CLR 68 57.9 70% 30.21 1023.0
19 14:53 W 10 10.00 Fair CLR 69.1 59 70% 30.21 1023.0
19 13:53 S 7 10.00 Fair CLR 73 60.1 64% 30.22 1023.2
19 12:53 SW 10 10.00 Fair CLR 69.1 59 70% 30.22 1023.3
19 11:53 SW 5 10.00 A Few Clouds FEW018 68 59 73% 30.21 1023.0
19 10:53 SW 7 10.00 Overcast OVC014 64.9 57.9 66 57.9 78% 30.21 1023.0
19 09:53 S 5 10.00 Overcast OVC011 64 57.9 81% 30.21 1023.0
19 08:53 SE 5 10.00 Overcast OVC008 61 57.9 90% 30.2 1022.8
19 07:53 S 5 8.00 Overcast OVC005 59 57 93% 30.2 1022.6
19 06:53 SW 5 10.00 Overcast OVC006 57.9 55.9 93% 30.18 1022.1
19 05:53 SE 3 10.00 Overcast OVC007 57.9 55.9 93% 30.16 1021.5
19 04:53 Calm 9.00 Overcast OVC007 57.9 55.9 59 57 93% 30.16 1021.2
19 03:53 Calm 4.00 Fog/Mist OVC003 57.9 55.9 93% 30.15 1021.0
19 02:53 Calm 6.00 Fog/Mist OVC007 59 55.9 90% 30.15 1021.1
19 01:53 Calm 10.00 Overcast OVC008 59 55.9 90% 30.15 1021.1
19 00:53 Calm 10.00 Overcast FEW006 OVC011 57.9 55.9 93% 30.15 1020.9
18 23:53 Calm 2.50 Fog/Mist OVC003 57 55 93% 30.15 1020.8
18 22:53 SE 3 1.25 Fog/Mist OVC002 57 55 64.9 57 93% 30.14 1020.6
18 21:53 S 3 8.00 Overcast OVC002 57 55 93% 30.13 1020.5
18 20:53 SW 3 10.00 Overcast BKN004 OVC008 57 55 93% 30.12 1020.0
18 19:53 Vrbl 5 10.00 Mostly Cloudy BKN011 61 55.9 84% 30.11 1019.6
18 18:53 S 6 10.00 Overcast OVC013 62.1 55.9 80% 30.11 1019.7
18 17:53 SW 8 10.00 Overcast OVC015 63 55.9 78% 30.12 1019.8
18 16:53 SW 9 G 18 10.00 Overcast OVC018 64.9 55.9 66.9 59 73% 30.13 1020.2
18 15:53 S 13 G 20 10.00 Overcast OVC020 66 55 68% 30.12 1020.0
18 14:53 S 9 G 18 10.00 Overcast OVC016 64.9 55 70% 30.12 1020.0
18 13:53 S 8 G 18 10.00 Overcast OVC015 64 55 73% 30.12 1020.1
18 12:53 S 8 10.00 Overcast OVC016 63 54 73% 30.12 1020.0
18 11:53 S 9 G 21 10.00 Overcast OVC012 61 54 78% 30.12 1020.0
18 10:53 Vrbl 6 10.00 Overcast OVC008 60.1 55 60.1 55.9 84% 30.12 1019.8
18 09:53 S 9 8.00 Overcast OVC006 57.9 55 90% 30.11 1019.7
18 08:53 S 7 10.00 Overcast OVC006 57.9 55 90% 30.11 1019.5
18 07:53 Vrbl 7 10.00 Overcast BKN008 OVC012 57 55 93% 30.1 1019.3
18 06:53 Vrbl 5 10.00 Overcast OVC010 57 55 93% 30.09 1018.8
18 05:53 S 5 10.00 Overcast FEW005 OVC011 55.9 54 93% 30.08 1018.6
18 04:53 Calm 10.00 Overcast OVC002 55.9 54 59 55.9 93% 30.08 1018.5
18 03:53 Vrbl 6 10.00 Overcast OVC003 57 55 93% 30.07 1018.4
18 02:53 Vrbl 6 4.00 Fog/Mist OVC003 57.9 55.9 93% 30.07 1018.1
18 01:53 S 3 10.00 Overcast OVC005 57.9 55.9 93% 30.07 1018.1
18 00:53 Vrbl 3 8.00 Overcast OVC003 57.9 55.9 93% 30.07 1018.1
17 23:53 S 8 6.00 Fog/Mist OVC003 57.9 55.9 93% 30.06 1018.0
17 22:53 Vrbl 5 6.00 Fog/Mist OVC003 59 57 63 59 93% 30.06 1018.0
17 21:53 S 7 10.00 Overcast OVC006 60.1 57 90% 30.06 1017.9
17 20:53 S 3 10.00 Overcast OVC005 60.1 57 90% 30.05 1017.7
17 19:53 S 3 7.00 Overcast OVC004 60.1 57 90% 30.06 1017.9
17 18:53 Calm 8.00 Overcast OVC005 60.1 57 90% 30.06 1018.0
17 17:53 Vrbl 7 G 17 10.00 Overcast OVC007 61 57 87% 30.06 1017.9
17 16:53 S 10 G 20 10.00 Overcast OVC006 63 57.9 70 57.9 84% 30.05 1017.6
17 15:53 S 9 10.00 Overcast OVC006 62.1 57 84% 30.05 1017.6
17 14:53 S 14 G 23 10.00 Mostly Cloudy BKN012 68 60.1 76% 30.05 1017.6
17 13:53 S 8 10.00 Partly Cloudy SCT012 69.1 60.1 73% 30.04 1017.0
17 12:53 S 8 G 18 10.00 Overcast OVC010 66 59 78% 30.04 1017.1
17 11:53 S 8 10.00 Overcast OVC003 60.1 57 90% 30.04 1017.3
17 10:53 S 10 G 17 6.00 Fog/Mist OVC005 57.9 55 62.1 55 90% 30.04 1017.1
17 09:53 S 7 10.00 Overcast OVC004 62.1 59 90% 30.01 1016.2
17 08:53 Calm 4.00 Fog/Mist OVC002 55.9 55 97% 30.01 1016.0
17 07:53 S 6 1.50 Fog/Mist OVC002 55.9 55 97% 30 1015.8
17 06:53 S 8 0.50 Fog VV002 55 54 96% 29.99 1015.6
17 05:53 Vrbl 3 1.75 Fog/Mist OVC002 55 53.1 93% 29.98 1015.2
17 04:53 Vrbl 6 3.00 Fog/Mist OVC002 55 53.1 62.1 54 93% 29.97 1014.7
17 03:53 S 8 1.00 Fog/Mist VV002 55 53.1 93% 29.97 1014.8
17 02:53 S 8 10.00 Fair CLR 55.9 53.1 90% 29.96 1014.4
Date Time (pdt) Wind (mph) Vis. (mi.) Weather Sky Cond. Air Dwpt Max. Min. Relative Humidity Wind Chill (°F) Heat Index (°F) altimeter (in) sea level (mb) 1 hr 3 hr 6 hr
6 hour
Temperature (ºF) Pressure Precipitation (in)